Cloud_Cover
0 0 0 0 5 79 100 100 68 27 5 0 63 88 6 0 0 0 0 4 5 39 74 100 100 100 5 0 0 0 0 9 1 1 0 2 13 17 46 1 0 1 0 0
0 0 1 4 5 72 100 87 71 98 12 0 19 94 8 0 0 0 0 0 0 8 97 98 100 100 13 5 0 0 0 0 0 0 0 34 19 23 4 3 0 0 0 0
0 2 0 5 0 5 80 100 96 57 69 34 2 3 3 2 0 0 0 0 0 0 28 92 100 100 20 14 0 0 0 0 0 0 0 0 0 0 0 0 0 4 0 0
0 0 0 4 0 5 41 13 16 36 92 100 40 82 100 5 0 0 0 0 0 0 1 34 87 100 14 7 0 0 0 0 0 0 12 0 0 0 0 0 2 0 0 0
0 0 0 0 0 1 5 10 99 6 100 100 25 74 76 9 0 0 0 0 0 0 0 2 23 20 8 19 9 0 0 0 0 0 0 0 0 0 0 0 0 0 0 0
0 0 0 0 0 0 2 19 99 78 100 100 96 96 100 8 0 0 0 0 0 0 0 0 0 0 5 5 10 0 0 0 0 0 0 0 0 0 0 0 0 0 2 6
0 0 0 0 0 0 2 64 100 100 99 77 98 92 100 84 76 2 0 0 0 0 0 0 0 0 0 0 2 0 0 0 0 0 0 0 0 0 0 0 0 0 0 0
0 0 0 0 0 0 0 79 100 99 100 100 20 43 98 100 73 0 1 0 0 0 0 0 0 0 0 0 0 0 0 0 0 0 0 0 0 0 0 0 0 0 0 0
0 0 0 0 0 0 0 5 68 90 54 100 90 78 4 15 0 0 0 0 0 0 0 0 0 0 0 0 0 0 0 0 0 0 0 0 0 0 0 0 0 0 0 0
0 0 0 0 0 0 0 16 4 8 96 9 97 72 1 2 5 4 0 0 0 0 0 0 0 0 0 0 0 0 0 0 0 0 0 0 0 0 0 0 0 0 0 0
0 0 0 0 0 0 0 4 5 69 90 99 100 100 100 50 4 0 0 0 0 0 0 0 0 0 0 0 0 0 0 0 0 0 0 0 0 0 0 0 0 0 1 2
0 0 0 0 0 0 0 0 4 28 6 100 80 46 100 1 0 0 0 0 0 0 0 0 0 0 0 0 0 0 0 0 0 0 0 0 0 0 0 0 0 0 1 7
0 0 0 0 0 0 0 0 1 5 47 79 100 38 100 33 0 0 0 0 0 0 0 0 0 0 0 0 0 0 0 0 0 0 0 0 0 0 0 0 0 2 0 2
0 0 0 0 0 0 0 0 0 4 27 57 100 60 100 98 0 0 0 0 0 0 0 0 0 0 0 0 0 0 0 0 0 0 0 0 0 0 0 0 0 0 0 7
0 0 0 0 0 0 0 0 0 0 30 51 10 98 100 90 0 0 0 0 0 0 0 0 0 0 0 0 0 0 0 0 0 0 0 0 0 0 0 0 1 0 6 14
0 0 0 0 0 0 0 0 0 0 60 38 69 84 100 100 0 0 0 0 0 0 0 0 0 0 0 0 0 0 0 0 0 0 0 0 0 0 0 0 6 92 62 100
0 0 0 0 0 0 0 0 0 0 98 91 42 37 6 85 86 0 0 0 0 0 0 0 0 0 0 0 0 0 0 0 0 0 0 0 0 5 4 25 5 42 80 95
0 0 0 0 0 0 0 0 0 0 63 100 68 100 99 66 56 3 4 0 0 0 0 0 0 0 0 0 0 0 0 0 0 0 0 0 0 0 2 2 36 50 32 34
0 0 0 0 0 0 0 0 0 0 0 5 12 1 100 100 100 42 79 3 0 4 0 0 0 0 0 0 0 0 0 0 0 0 0 0 0 0 0 0 0 29 69 100
0 0 0 0 0 0 0 0 0 0 0 0 4 2 0 100 100 100 35 45 0 0 0 0 0 0 0 0 0 0 0 0 0 0 0 0 0 0 0 0 0 33 100 88
0 0 0 0 0 0 0 0 0 0 0 3 4 1 0 8 100 100 100 72 10 42 3 0 0 0 2 0 0 0 0 0 0 0 0 0 0 1 2 3 17 60 96 85
0 0 0 0 0 0 1 1 4 0 0 0 12 78 5 8 69 11 13 5 81 97 60 0 0 0 5 1 0 0 0 0 0 0 0 0 0 12 11 4 85 68 99 76
75 0 0 0 0 0 0 0 0 0 0 0 20 10 0 5 3 5 7 62 5 4 4 5 2 0 5 5 5 0 1 5 5 0 0 0 5 76 19 34 75 100 100 59
99 92 2 97 0 0 0 0 0 0 0 0 5 100 100 48 5 5 4 4 5 5 24 5 5 5 5 5 5 5 0 5 33 5 5 0 4 86 12 88 82 75 95 24
98 100 17 100 20 0 0 0 0 0 0 0 0 1 15 80 100 64 5 4 0 0 4 5 5 5 5 5 96 18 5 5 44 5 30 56 4 1 94 96 66 55 100 20
100 80 100 100 49 54 0 0 0 0 0 0 0 0 5 5 100 84 100 3 5 5 5 0 5 5 5 3 58 98 5 5 5 7 91 23 40 65 100 88 88 97 80 95